Date,TemperatureHighF,TemperatureAvgF,TemperatureLowF,DewpointHighF,DewpointAvgF,DewpointLowF,HumidityHigh,HumidityAvg,HumidityLow,PressureMaxIn,PressureMinIn,WindSpeedMaxMPH,WindSpeedAvgMPH,GustSpeedMaxMPH,PrecipitationSumIn
2013-1-1,34.4,26.5,22.3,23.5,20.0,15.0,90,77,62,0.00,40.00,0,0,0,0.00
2013-1-2,45.4,31.7,23.4,26.7,19.1,14.3,70,61,36,0.00,40.00,0,0,0,0.00
2013-1-3,42.8,33.0,27.7,22.3,19.0,14.1,69,58,31,0.00,40.00,0,0,0,0.00
2013-1-4,44.5,33.0,26.5,23.9,19.8,17.0,70,60,37,0.00,40.00,0,0,0,0.00
2013-1-5,43.6,32.6,0.0,21.6,19.6,0.0,70,56,37,0.00,40.00,0,0,0,0.00
2013-1-6,32.6,28.6,24.5,28.2,24.6,16.8,91,86,54,0.00,40.00,0,0,0,0.43
2013-1-7,39.6,29.9,21.2,35.6,25.7,18.7,91,84,73,0.00,40.00,0,0,0,0.02
2013-1-8,50.6,38.7,33.1,30.3,27.7,25.4,76,66,44,0.00,40.00,0,0,0,0.00
2013-1-9,50.9,40.8,34.7,33.0,29.8,27.8,91,66,44,0.00,40.00,0,0,0,0.00
2013-1-10,32.9,22.8,19.6,31.2,20.1,16.4,94,89,85,0.00,40.00,0,0,0,0.19
2013-1-11,24.3,20.1,18.2,18.1,16.1,13.2,90,85,74,0.00,40.00,0,0,0,0.02
2013-1-12,26.3,18.5,13.5,17.9,14.0,10.1,87,83,69,0.00,40.00,0,0,0,0.02
2013-1-13,26.1,18.3,13.1,17.9,13.1,9.7,87,81,60,0.00,40.00,0,0,0,0.00
2013-1-14,28.4,18.7,11.0,16.4,9.1,4.2,82,68,42,0.00,40.00,0,0,0,0.00
2013-1-15,41.8,28.9,18.2,22.9,17.0,10.4,71,62,41,0.00,40.00,0,0,0,0.00
2013-1-16,50.8,37.4,28.8,28.5,22.9,19.3,70,57,35,0.00,40.00,0,0,0,0.00
2013-1-17,50.9,37.6,31.3,22.0,16.3,13.8,62,43,24,0.00,40.00,0,0,0,0.00
2013-1-18,50.0,36.8,30.6,17.5,13.5,11.1,47,39,21,0.00,40.00,0,0,0,0.00
2013-1-19,52.0,37.3,31.1,18.2,13.0,10.1,46,37,25,0.00,40.00,0,0,0,0.00
2013-1-20,52.4,38.2,31.0,16.1,12.5,9.2,46,36,20,0.00,40.00,0,0,0,0.00
2013-1-21,56.5,40.5,32.9,22.2,14.5,8.8,48,36,17,0.00,40.00,0,0,0,0.00
2013-1-22,54.5,40.0,34.9,21.6,16.4,14.0,46,39,24,0.00,40.00,0,0,0,0.00
2013-1-23,48.2,41.0,36.4,35.0,25.0,15.9,90,55,37,0.00,40.00,0,0,0,0.04
2013-1-24,45.4,40.0,36.5,43.7,38.1,33.8,95,93,90,0.00,40.00,0,0,0,0.73
2013-1-25,42.5,40.1,38.7,41.1,38.6,37.1,96,95,94,0.00,40.00,0,0,0,0.12
2013-1-26,41.6,39.4,36.4,40.5,38.2,34.7,96,95,94,0.00,40.00,0,0,0,0.08
2013-1-27,36.4,28.9,24.1,34.7,26.8,20.8,95,92,85,0.00,40.00,0,0,0,0.04
2013-1-28,25.6,24.8,23.4,23.6,22.8,21.6,94,92,88,0.00,40.00,0,0,0,0.02
2013-1-29,32.4,28.9,24.5,30.3,26.8,23.0,94,92,86,0.00,40.00,0,0,0,0.00
2013-1-30,50.8,37.5,30.6,34.9,31.1,28.4,94,79,47,0.00,40.00,0,0,0,0.00
2013-1-31,54.7,41.0,33.5,34.3,29.3,25.5,80,65,35,0.00,40.00,0,0,0,0.00